Location: Eaton Estates
(41.3089°N, 82.0057°W)
Time: 16:46:23
(UTC+00:00)

Cosmos 2151 - Pass Details

Date: 17 June 2021
Orbit: 582 x 600 km, 82.5° (Epoch: 01 August)

Event Time Altitude Azimuth Distance (km) Brightness Sun altitude
Exits shadow 07:45:27 33° 176° (S) 998 3.7 -18.0°
Maximum altitude 07:47:17 77° 97° (E) 607 3.0 -17.8°
Drops below altitude 10° 07:51:30 10° 11° (N) 1,913 6.6 -17.4°
Sets 07:53:42 0° 10° (N) 2,816 7.7 -17.1°
